Regional Weather Roundup
Issued by NWS Sterling, VA

Home | Current Version | Previous Version | Text Only | Print | Product List | Glossary Off
Versions: 1 2 3 4 5 6 7 8 9 10 11 12 13 14 15 16 17 18 19 20 21 22 23 24 25 26 27 28 29 30 31 32 33 34 35 36 37 38 39 40 41 42 43 44 45 46 47 48 49 50

000
ASUS41 KLWX 201310
RWRLWX

REGIONAL WEATHER ROUNDUP
NATIONAL WEATHER SERVICE BALTIMORE MD/WASHINGTON DC
900 AM EDT MON OCT 20 2014

Note: "FAIR" indicates few or no clouds below 12,000 feet
with no significant weather and/or obstructions to visibility.
 TC=TEMPERATURE CELSIUS

 * =Non NWS site. Station does not report precipitation (e.g. rain,
    snow, etc.), thunder, or fog.

DCZ001-MDZ009-015-VAZ040>042-051-053>054-201400-
WASHINGTON METRO

CITY           SKY/WX    TMP DP  RH WIND       PRES   REMARKS
WASHINGTON NAT CLOUDY    51  43  74 S8        30.15R
DULLES         PTSUNNY   45  39  79 S3        30.13R
ANDREWS AFB    MOSUNNY   50  40  70 S6        30.13R
FT BELVOIR     SUNNY     43  42  95 CALM      30.15R
QUANTICO       MOSUNNY   51  41  68 SW9       30.15R
COLLEGE PARK*  MOSUNNY   45  43  93 CALM      30.13R
LEESBURG*      PTSUNNY   43  41  93 CALM      30.13R
MANASSAS*      MOSUNNY   43  43 100 CALM      30.13S
GAITHERSBURG*  CLOUDY    45  43  93 CALM      30.16R

$$

MDZ006>007-011-014-201400-
BALTIMORE METRO

CITY           SKY/WX    TMP DP  RH WIND       PRES   REMARKS
BWI AIRPORT    PTSUNNY   45  40  82 CALM      30.13R
MD SCIENCE CTR   N/A     50  37  61 MISG      30.14R
ANNAPOLIS      MOSUNNY   51  38  60 CALM      30.13R
FORT MEADE*    PTSUNNY   41  39  93 CALM      30.16R

$$

MDZ012-015-019>023-201400-
MARYLAND EASTERN SHORE

CITY           SKY/WX    TMP DP  RH WIND       PRES   REMARKS
OCEAN CITY     SUNNY     49  45  86 CALM      30.16R
SALISBURY      SUNNY     46  38  73 CALM      30.15S
BAY BRIDGE AP*   N/A     54  37  54 SE8       30.14R
CAMBRIDGE*     SUNNY     50  43  76 SE5       30.15R
EASTON*        SUNNY     50  48  93 CALM      30.18R

$$

MDZ017>025-201400-
SOUTHERN MARYLAND

CITY           SKY/WX    TMP DP  RH WIND       PRES   REMARKS
PATUXENT RIVER PTSUNNY   55  42  61 S6        30.14R
ST INIGOES     MOSUNNY   49  44  83 CALM      30.15R
LEONARDTOWN*   NOT AVBL

$$

MDZ003>005-201400-
NORTH CENTRAL MARYLAND

CITY           SKY/WX    TMP DP  RH WIND       PRES   REMARKS
FREDERICK*     SUNNY     45  39  81 CALM      30.15R
HAGERSTOWN APT CLOUDY    43  36  76 SE6       30.10R
WESTMINSTER*   CLOUDY    46  43  87 CALM      30.11R

$$

MDZ501>502-201400-
WESTERN MARYLAND

CITY           SKY/WX    TMP DP  RH WIND       PRES   REMARKS
OAKLAND*       CLOUDY    37  37 100 S8        30.04R
CUMBERLAND*    NOT AVBL

$$

VAZ025>031-201400-
SHENANDOAH VALLEY

CITY           SKY/WX    TMP DP  RH WIND       PRES   REMARKS
WINCHESTER*    PTSUNNY   45  34  65 CALM      30.09S
FRONT ROYAL*   FAIR      39  36  87 CALM      30.09R
LURAY*         FAIR      43  41  93 CALM      30.09S
NEW MARKET*    FAIR      38  37  93 CALM      30.09S
STAUNTON*      MOSUNNY   37  35  90 CALM      30.12R
WAYNESBORO*    FAIR      42  35  76 CALM      30.08S

$$

WVZ021-048>050-054>055-201400-
EASTERN WEST VIRGINIA PANHANDLE

CITY           SKY/WX    TMP DP  RH WIND       PRES   REMARKS
MARTINSBURG    CLOUDY    40  35  83 CALM      30.11R
PETERSBURG*    CLOUDY   N/A N/A N/A CALM      30.10R

$$

VAZ036>039-050-201400-
CENTRAL FOOTHILLS

CITY           SKY/WX    TMP DP  RH WIND       PRES   REMARKS
CHARLOTTESVILL SUNNY     43  38  82 CALM      30.11S
CULPEPER*      SUNNY     41  39  93 CALM      30.13S
ORANGE*        SUNNY     45  41  87 S3        30.13S
GORDONSVILLE*  FAIR      41  39  92 S3        30.11S
WARRENTON*     FAIR      44  44  99 CALM      30.11S

$$

VAZ055>057-201400-
NORTH AND CENTRAL PIEDMONT

CITY           SKY/WX    TMP DP  RH WIND       PRES   REMARKS
FREDERICKSBRG* SUNNY     42  42  99 CALM      30.13S
STAFFORD*      SUNNY     42  42 100 CALM      30.17S

$$

NCZ024-NYZ072-PAZ021-071-VAZ022-071-201400-
OTHER REGIONAL OBSERVATIONS

CITY           SKY/WX    TMP DP  RH WIND       PRES   REMARKS
NEW YORK CITY  PTSUNNY   47  29  49 VRB6      30.15R
PHILADELPHIA   PTSUNNY   45  32  60 SW3       30.15R
PITTSBURGH     CLOUDY    44  37  76 S8        30.01R
ROANOKE        PTSUNNY   44  38  79 CALM      30.14R
RICHMOND       PTSUNNY   49  42  77 S5        30.16R
RALEIGH        MOSUNNY   51  43  74 S5        30.17R

$$

ANZ530>537-201400-
MARINE OBSERVATIONS

STATION/POSITION TIME  TEMP    WIND        PRES
                       AIR SEA DIR/SP/G
                 (UTC) (F)     (DEG/KT/KT) (MB)
THOMAS PT LIGHT  1300   55 63  160/ 13/ 15 1021.3R
BALT KEY BRIDGE  1300   48     230/  3/  4 1020.1S
COVE POINT       1300   56     160/ 11/ 12 1020.6R
LEWISETTA        1300   51 62  220/  6/  6 1020.5S
SOLOMONS ISLAND  1300      66                N/A
PINEY POINT      1300          210/  9/ 10   N/A

$$




USA.gov is the U.S. government's official web portal to all federal, state and local government web resources and services.